Time,TemperatureF,DewpointF,PressureIn,WindDirection,WindDirectionDegrees,WindSpeedMPH,WindSpeedGustMPH,Humidity,HourlyPrecipIn,Conditions,Clouds,dailyrainin,SoftwareType,DateUTC
2013-04-29 00:00:00,54.1,50.0,28.78,NE,45,4.6,4.6,86,0.00,CLR,SKC,0.14,WeatherDisplay:10.37,2013-04-29 04:00:00,
2013-04-29 00:01:00,54.1,50.0,28.78,NE,45,4.6,4.6,86,0.00,CLR,SKC,0.14,WeatherDisplay:10.37,2013-04-29 04:01:00,
2013-04-29 00:05:00,54.1,50.0,28.78,NE,45,3.5,3.5,86,0.00,RA,SKC,0.00,WeatherDisplay:10.37,2013-04-29 04:05:00,
2013-04-29 00:06:00,54.1,50.0,28.78,NE,45,3.5,3.5,86,0.00,RA,SKC,0.00,WeatherDisplay:10.37,2013-04-29 04:06:00,
2013-04-29 00:11:00,54.1,50.0,28.79,ENE,68,5.8,5.8,86,0.00,RA,SKC,0.00,WeatherDisplay:10.37,2013-04-29 04:11:00,
2013-04-29 00:14:00,54.1,50.0,28.79,East,90,3.5,3.5,86,0.00,CLR,SKC,0.00,WeatherDisplay:10.37,2013-04-29 04:14:00,
2013-04-29 00:19:00,54.1,50.0,28.78,NE,45,5.8,5.8,86,0.00,CLR,SKC,0.00,WeatherDisplay:10.37,2013-04-29 04:19:00,
2013-04-29 00:24:00,54.0,49.9,28.78,ENE,68,8.1,8.1,86,0.00,CLR,SKC,0.00,WeatherDisplay:10.37,2013-04-29 04:24:00,
2013-04-29 00:29:00,54.0,50.2,28.78,East,90,9.2,9.2,87,0.00,CLR,SKC,0.00,WeatherDisplay:10.37,2013-04-29 04:29:00,
2013-04-29 00:34:00,54.0,50.2,28.78,ENE,68,5.8,5.8,87,0.00,CLR,SKC,0.00,WeatherDisplay:10.37,2013-04-29 04:34:00,
2013-04-29 00:39:00,54.0,50.2,28.78,East,90,4.6,4.6,87,0.00,CLR,SKC,0.00,WeatherDisplay:10.37,2013-04-29 04:39:00,
2013-04-29 00:44:00,54.0,50.2,28.78,NE,45,5.8,5.8,87,0.00,CLR,SKC,0.00,WeatherDisplay:10.37,2013-04-29 04:44:00,
2013-04-29 00:49:00,53.8,50.0,28.78,NE,45,5.8,5.8,87,0.00,CLR,SKC,0.00,WeatherDisplay:10.37,2013-04-29 04:49:00,
2013-04-29 00:54:00,53.8,50.0,28.77,NE,45,10.4,10.4,87,0.00,CLR,SKC,0.00,WeatherDisplay:10.37,2013-04-29 04:54:00,
2013-04-29 00:59:00,53.8,50.0,28.78,East,90,5.8,5.8,87,0.00,CLR,SKC,0.00,WeatherDisplay:10.37,2013-04-29 04:59:00,
2013-04-29 01:04:00,53.8,50.0,28.78,NE,45,5.8,5.8,87,0.00,CLR,SKC,0.00,WeatherDisplay:10.37,2013-04-29 05:04:00,
2013-04-29 01:09:00,53.8,50.0,28.77,East,90,5.8,5.8,87,0.00,CLR,SKC,0.00,WeatherDisplay:10.37,2013-04-29 05:09:00,
2013-04-29 01:14:00,53.8,50.0,28.77,NE,45,5.8,5.8,87,0.00,CLR,SKC,0.00,WeatherDisplay:10.37,2013-04-29 05:14:00,
2013-04-29 01:19:00,53.8,50.0,28.77,NE,45,5.8,5.8,87,0.00,CLR,SKC,0.00,WeatherDisplay:10.37,2013-04-29 05:19:00,
2013-04-29 01:24:00,53.8,50.0,28.77,East,90,9.2,9.2,87,0.00,CLR,SKC,0.00,WeatherDisplay:10.37,2013-04-29 05:24:00,
2013-04-29 01:29:00,54.0,50.2,28.78,NE,45,3.5,0.0,87,0.00,CLR,SKC,0.00,WeatherDisplay:10.37,2013-04-29 05:29:00,
2013-04-29 01:34:00,54.0,50.2,28.78,NE,45,2.3,2.3,87,0.00,CLR,SKC,0.00,WeatherDisplay:10.37,2013-04-29 05:34:00,
2013-04-29 01:39:00,54.0,49.9,28.77,NE,45,3.5,3.5,86,0.00,CLR,SKC,0.00,WeatherDisplay:10.37,2013-04-29 05:39:00,
2013-04-29 01:44:00,54.1,50.0,28.77,NE,45,5.8,5.8,86,0.00,CLR,SKC,0.00,WeatherDisplay:10.37,2013-04-29 05:44:00,
2013-04-29 01:49:00,54.1,50.0,28.77,NE,45,8.1,8.1,86,0.00,CLR,SKC,0.00,WeatherDisplay:10.37,2013-04-29 05:49:00,
2013-04-29 01:54:00,54.1,50.0,28.76,NE,45,3.5,4.5,86,0.00,CLR,SKC,0.00,WeatherDisplay:10.37,2013-04-29 05:54:00,
2013-04-29 01:59:00,54.1,50.0,28.77,NE,45,3.5,0.0,86,0.00,CLR,SKC,0.00,WeatherDisplay:10.37,2013-04-29 05:59:00,
2013-04-29 02:04:00,54.1,50.0,28.76,NE,45,4.6,4.6,86,0.00,CLR,SKC,0.00,WeatherDisplay:10.37,2013-04-29 06:04:00,
2013-04-29 02:09:00,54.1,50.0,28.76,NE,45,4.6,4.6,86,0.00,CLR,SKC,0.00,WeatherDisplay:10.37,2013-04-29 06:09:00,
2013-04-29 02:14:00,54.1,50.0,28.76,NE,45,4.6,4.6,86,0.00,CLR,SKC,0.00,WeatherDisplay:10.37,2013-04-29 06:14:00,
2013-04-29 02:19:00,54.1,50.0,28.76,East,90,6.9,0.0,86,0.00,CLR,SKC,0.00,WeatherDisplay:10.37,2013-04-29 06:19:00,
2013-04-29 02:24:00,54.1,50.0,28.77,NE,45,3.5,3.5,86,0.00,CLR,SKC,0.00,WeatherDisplay:10.37,2013-04-29 06:24:00,
2013-04-29 02:29:00,54.1,50.0,28.77,NE,45,1.2,0.0,86,0.00,CLR,SKC,0.00,WeatherDisplay:10.37,2013-04-29 06:29:00,
2013-04-29 02:34:00,54.1,50.0,28.76,NE,45,3.5,3.5,86,0.00,CLR,SKC,0.00,WeatherDisplay:10.37,2013-04-29 06:34:00,
2013-04-29 02:39:00,54.1,50.0,28.76,NE,45,4.6,4.6,86,0.00,CLR,SKC,0.00,WeatherDisplay:10.37,2013-04-29 06:39:00,
2013-04-29 02:44:00,54.1,50.0,28.76,East,90,5.8,5.8,86,0.00,CLR,SKC,0.00,WeatherDisplay:10.37,2013-04-29 06:44:00,
2013-04-29 02:49:00,54.1,50.0,28.76,NE,45,2.3,2.3,86,0.00,CLR,SKC,0.00,WeatherDisplay:10.37,2013-04-29 06:49:00,
2013-04-29 02:54:00,54.1,50.0,28.76,NE,45,3.5,3.5,86,0.00,CLR,SKC,0.00,WeatherDisplay:10.37,2013-04-29 06:54:00,
2013-04-29 02:59:00,54.1,50.0,28.75,NE,45,3.5,3.5,86,0.00,CLR,SKC,0.00,WeatherDisplay:10.37,2013-04-29 06:59:00,
2013-04-29 03:04:00,54.1,50.0,28.75,ENE,68,3.5,3.5,86,0.00,CLR,SKC,0.00,WeatherDisplay:10.37,2013-04-29 07:04:00,
2013-04-29 03:09:00,54.1,49.7,28.75,NE,45,4.6,4.6,85,0.00,CLR,SKC,0.00,WeatherDisplay:10.37,2013-04-29 07:09:00,
2013-04-29 03:14:00,54.1,49.7,28.75,NE,45,3.5,3.5,85,0.00,CLR,SKC,0.00,WeatherDisplay:10.37,2013-04-29 07:14:00,
2013-04-29 03:19:00,54.3,49.9,28.75,NE,45,5.8,5.8,85,0.00,CLR,SKC,0.00,WeatherDisplay:10.37,2013-04-29 07:19:00,
2013-04-29 03:24:00,54.3,49.9,28.75,ENE,68,5.8,5.8,85,0.00,CLR,SKC,0.00,WeatherDisplay:10.37,2013-04-29 07:24:00,
2013-04-29 03:29:00,54.3,49.9,28.75,NE,45,3.5,0.0,85,0.00,CLR,SKC,0.00,WeatherDisplay:10.37,2013-04-29 07:29:00,
2013-04-29 03:34:00,54.3,49.9,28.75,NE,45,3.5,3.5,85,0.00,CLR,SKC,0.00,WeatherDisplay:10.37,2013-04-29 07:34:00,
2013-04-29 03:39:00,54.3,49.9,28.75,ENE,68,4.6,4.6,85,0.00,CLR,SKC,0.00,WeatherDisplay:10.37,2013-04-29 07:39:00,
2013-04-29 03:44:00,54.3,49.9,28.75,NE,45,3.5,3.5,85,0.00,CLR,SKC,0.00,WeatherDisplay:10.37,2013-04-29 07:44:00,
2013-04-29 03:49:00,54.3,49.9,28.75,East,90,3.5,3.5,85,0.00,CLR,SKC,0.00,WeatherDisplay:10.37,2013-04-29 07:49:00,
2013-04-29 03:54:00,54.1,49.7,28.76,NE,45,4.6,4.6,85,0.00,CLR,SKC,0.00,WeatherDisplay:10.37,2013-04-29 07:54:00,
2013-04-29 03:59:00,54.1,49.7,28.75,NE,45,5.8,5.8,85,0.00,CLR,SKC,0.00,WeatherDisplay:10.37,2013-04-29 07:59:00,
2013-04-29 04:04:00,54.1,49.7,28.76,ENE,68,2.3,2.3,85,0.00,CLR,SKC,0.00,WeatherDisplay:10.37,2013-04-29 08:04:00,
2013-04-29 04:09:00,54.1,49.7,28.75,ENE,68,2.3,2.3,85,0.00,CLR,SKC,0.00,WeatherDisplay:10.37,2013-04-29 08:09:00,
2013-04-29 04:14:00,54.1,50.0,28.76,NE,45,5.8,5.8,86,0.00,CLR,SKC,0.00,WeatherDisplay:10.37,2013-04-29 08:14:00,
2013-04-29 04:19:00,54.1,50.0,28.76,NE,45,5.8,5.8,86,0.00,CLR,SKC,0.00,WeatherDisplay:10.37,2013-04-29 08:19:00,
2013-04-29 04:24:00,54.3,50.2,28.76,East,90,5.8,5.8,86,0.00,CLR,SKC,0.00,WeatherDisplay:10.37,2013-04-29 08:24:00,
2013-04-29 04:29:00,54.3,49.9,28.76,East,90,5.8,5.8,85,0.00,CLR,SKC,0.00,WeatherDisplay:10.37,2013-04-29 08:29:00,
2013-04-29 04:34:00,54.3,49.9,28.76,NE,45,3.5,0.0,85,0.00,CLR,SKC,0.00,WeatherDisplay:10.37,2013-04-29 08:34:00,
2013-04-29 04:39:00,54.3,49.9,28.76,NE,45,2.3,0.0,85,0.00,CLR,SKC,0.00,WeatherDisplay:10.37,2013-04-29 08:39:00,
2013-04-29 04:44:00,54.3,49.9,28.76,NE,45,2.3,0.0,85,0.00,CLR,SKC,0.00,WeatherDisplay:10.37,2013-04-29 08:44:00,
2013-04-29 04:49:00,54.3,49.9,28.76,NE,45,3.5,0.0,85,0.00,CLR,SKC,0.00,WeatherDisplay:10.37,2013-04-29 08:49:00,
2013-04-29 04:54:00,54.3,49.9,28.76,NE,45,5.8,0.0,85,0.00,CLR,SKC,0.00,WeatherDisplay:10.37,2013-04-29 08:54:00,
2013-04-29 04:59:00,54.3,49.9,28.76,ENE,68,1.6,0.0,85,0.00,CLR,SKC,0.00,WeatherDisplay:10.37,2013-04-29 08:59:00,
2013-04-29 05:04:00,54.3,49.9,28.76,NE,45,2.3,2.3,85,0.00,CLR,SKC,0.00,WeatherDisplay:10.37,2013-04-29 09:04:00,
2013-04-29 05:09:00,54.3,49.9,28.76,NE,45,3.5,0.0,85,0.00,CLR,SKC,0.00,WeatherDisplay:10.37,2013-04-29 09:09:00,
2013-04-29 05:14:00,54.3,49.9,28.76,NE,45,0.0,0.0,85,0.00,CLR,SKC,0.00,WeatherDisplay:10.37,2013-04-29 09:14:00,
2013-04-29 05:19:00,54.3,49.9,28.76,NE,45,0.0,0.0,85,0.00,CLR,SKC,0.00,WeatherDisplay:10.37,2013-04-29 09:19:00,
2013-04-29 05:24:00,54.3,50.2,28.76,NE,45,0.0,0.0,86,0.00,CLR,SKC,0.00,WeatherDisplay:10.37,2013-04-29 09:24:00,
2013-04-29 05:29:00,54.1,50.0,28.76,NE,45,0.0,0.0,86,0.00,CLR,SKC,0.00,WeatherDisplay:10.37,2013-04-29 09:29:00,
2013-04-29 05:34:00,54.1,50.0,28.76,NE,45,0.0,0.0,86,0.00,CLR,SKC,0.00,WeatherDisplay:10.37,2013-04-29 09:34:00,
2013-04-29 05:39:00,54.1,50.0,28.76,NE,45,1.2,0.0,86,0.00,CLR,SKC,0.00,WeatherDisplay:10.37,2013-04-29 09:39:00,
2013-04-29 05:44:00,54.1,50.0,28.76,NE,45,0.0,0.0,86,0.00,CLR,SKC,0.00,WeatherDisplay:10.37,2013-04-29 09:44:00,
2013-04-29 05:49:00,54.1,50.0,28.76,NE,45,0.0,0.0,86,0.00,CLR,SKC,0.00,WeatherDisplay:10.37,2013-04-29 09:49:00,
2013-04-29 05:54:00,54.1,50.0,28.76,NE,45,0.0,0.0,86,0.00,CLR,SKC,0.00,WeatherDisplay:10.37,2013-04-29 09:54:00,
2013-04-29 05:59:00,54.1,50.4,28.76,NE,45,0.0,0.0,87,0.00,CLR,SKC,0.00,WeatherDisplay:10.37,2013-04-29 09:59:00,
2013-04-29 06:04:00,54.1,50.4,28.76,NE,45,0.0,0.0,87,0.00,CLR,SKC,0.00,WeatherDisplay:10.37,2013-04-29 10:04:00,
2013-04-29 06:09:00,54.3,50.5,28.76,NE,45,1.2,0.0,87,0.00,CLR,SKC,0.00,WeatherDisplay:10.37,2013-04-29 10:09:00,
2013-04-29 06:14:00,54.3,50.5,28.76,NE,45,4.6,4.6,87,0.00,CLR,SKC,0.00,WeatherDisplay:10.37,2013-04-29 10:14:00,
2013-04-29 06:19:00,54.3,50.2,28.76,NE,45,1.2,0.0,86,0.00,CLR,SKC,0.00,WeatherDisplay:10.37,2013-04-29 10:19:00,
2013-04-29 06:24:00,54.5,50.7,28.77,East,90,2.2,2.2,87,0.00,CLR,SKC,0.00,WeatherDisplay:10.37,2013-04-29 10:24:00,
2013-04-29 06:29:00,54.5,50.4,28.77,NE,45,2.3,2.3,86,0.00,CLR,SKC,0.00,WeatherDisplay:10.37,2013-04-29 10:29:00,
2013-04-29 06:34:00,54.7,50.6,28.77,East,90,2.3,2.3,86,0.00,CLR,SKC,0.00,WeatherDisplay:10.37,2013-04-29 10:34:00,
2013-04-29 06:39:00,54.7,50.6,28.77,NE,45,1.2,0.0,86,0.00,CLR,SKC,0.00,WeatherDisplay:10.37,2013-04-29 10:39:00,
2013-04-29 06:44:00,54.7,50.9,28.77,NE,45,2.3,2.3,87,0.00,CLR,SKC,0.00,WeatherDisplay:10.37,2013-04-29 10:44:00,
2013-04-29 06:49:00,54.5,51.0,28.78,NE,45,2.3,2.3,88,0.00,CLR,SKC,0.00,WeatherDisplay:10.37,2013-04-29 10:49:00,
2013-04-29 06:54:00,54.5,51.3,28.78,NE,45,2.3,0.0,89,0.00,CLR,SKC,0.00,WeatherDisplay:10.37,2013-04-29 10:54:00,
2013-04-29 06:59:00,54.3,51.4,28.77,NE,45,3.5,3.5,90,0.00,CLR,SKC,0.00,WeatherDisplay:10.37,2013-04-29 10:59:00,
2013-04-29 07:04:00,54.3,51.4,28.78,NE,45,3.5,3.5,90,0.00,CLR,SKC,0.00,WeatherDisplay:10.37,2013-04-29 11:04:00,
2013-04-29 07:09:00,54.3,51.4,28.78,NE,45,3.5,3.5,90,0.00,CLR,SKC,0.00,WeatherDisplay:10.37,2013-04-29 11:09:00,
2013-04-29 07:14:00,54.5,51.6,28.78,NE,45,3.5,3.5,90,0.00,CLR,SKC,0.00,WeatherDisplay:10.37,2013-04-29 11:14:00,
2013-04-29 07:19:00,54.5,51.9,28.78,East,90,4.6,4.6,91,0.00,CLR,SKC,0.00,WeatherDisplay:10.37,2013-04-29 11:19:00,
2013-04-29 07:24:00,54.5,51.9,28.78,East,90,4.6,4.6,91,0.00,CLR,SKC,0.00,WeatherDisplay:10.37,2013-04-29 11:24:00,
2013-04-29 07:29:00,54.7,52.1,28.78,East,90,3.5,3.5,91,0.00,CLR,SKC,0.00,WeatherDisplay:10.37,2013-04-29 11:29:00,
2013-04-29 07:34:00,54.7,51.8,28.79,NE,45,5.8,5.8,90,0.00,CLR,SKC,0.00,WeatherDisplay:10.37,2013-04-29 11:34:00,
2013-04-29 07:39:00,54.9,52.0,28.78,East,90,5.8,5.8,90,0.00,CLR,SKC,0.00,WeatherDisplay:10.37,2013-04-29 11:39:00,
2013-04-29 07:44:00,55.0,52.2,28.79,NE,45,3.5,0.0,90,0.00,CLR,SKC,0.00,WeatherDisplay:10.37,2013-04-29 11:44:00,
2013-04-29 07:49:00,55.0,52.2,28.79,East,90,2.3,2.3,90,0.00,CLR,SKC,0.00,WeatherDisplay:10.37,2013-04-29 11:49:00,
2013-04-29 07:54:00,55.2,52.0,28.79,NE,45,5.8,0.0,89,0.00,CLR,SKC,0.00,WeatherDisplay:10.37,2013-04-29 11:54:00,
2013-04-29 07:59:00,55.4,52.2,28.79,ENE,68,3.5,3.5,89,0.00,CLR,SKC,0.00,WeatherDisplay:10.37,2013-04-29 11:59:00,
2013-04-29 08:04:00,55.6,52.4,28.80,East,90,3.5,3.5,89,0.00,CLR,SKC,0.00,WeatherDisplay:10.37,2013-04-29 12:04:00,
2013-04-29 08:09:00,55.9,52.1,28.80,NE,45,5.8,5.8,87,0.00,CLR,SKC,0.00,WeatherDisplay:10.37,2013-04-29 12:09:00,
2013-04-29 08:14:00,56.1,52.3,28.79,NE,45,1.2,0.0,87,0.00,CLR,SKC,0.00,WeatherDisplay:10.37,2013-04-29 12:14:00,
2013-04-29 08:19:00,56.5,52.3,28.80,East,90,3.5,3.5,86,0.00,CLR,SKC,0.00,WeatherDisplay:10.37,2013-04-29 12:19:00,
2013-04-29 08:24:00,56.7,52.2,28.79,NE,45,3.5,3.5,85,0.00,CLR,SKC,0.00,WeatherDisplay:10.37,2013-04-29 12:24:00,
2013-04-29 08:29:00,57.0,52.6,28.79,NE,45,4.6,0.0,85,0.00,CLR,SKC,0.00,WeatherDisplay:10.37,2013-04-29 12:29:00,
2013-04-29 08:34:00,57.6,53.1,28.80,ESE,112,1.2,1.2,85,0.00,CLR,SKC,0.00,WeatherDisplay:10.37,2013-04-29 12:34:00,
2013-04-29 08:39:00,57.7,52.9,28.80,NE,45,3.5,3.5,84,0.00,CLR,SKC,0.00,WeatherDisplay:10.37,2013-04-29 12:39:00,
2013-04-29 08:44:00,57.7,52.6,28.80,NE,45,4.6,4.6,83,0.00,CLR,SKC,0.00,WeatherDisplay:10.37,2013-04-29 12:44:00,
2013-04-29 08:49:00,57.9,52.8,28.79,NE,45,4.6,0.0,83,0.00,CLR,SKC,0.00,WeatherDisplay:10.37,2013-04-29 12:49:00,
2013-04-29 08:54:00,57.9,52.8,28.80,NE,45,3.5,3.5,83,0.00,CLR,SKC,0.00,WeatherDisplay:10.37,2013-04-29 12:54:00,
2013-04-29 08:59:00,58.1,53.0,28.80,NE,45,3.5,3.5,83,0.00,CLR,SKC,0.00,WeatherDisplay:10.37,2013-04-29 12:59:00,
2013-04-29 09:04:00,58.5,53.3,28.80,NE,45,1.2,0.0,83,0.00,CLR,SKC,0.00,WeatherDisplay:10.37,2013-04-29 13:04:00,
2013-04-29 09:09:00,59.0,53.5,28.80,NE,45,0.0,0.0,82,0.00,CLR,SKC,0.00,WeatherDisplay:10.37,2013-04-29 13:09:00,
2013-04-29 09:14:00,59.2,53.4,28.80,East,90,2.3,2.3,81,0.00,CLR,SKC,0.00,WeatherDisplay:10.37,2013-04-29 13:14:00,
2013-04-29 09:19:00,59.4,53.2,28.80,East,90,3.5,3.5,80,0.00,CLR,SKC,0.00,WeatherDisplay:10.37,2013-04-29 13:19:00,
2013-04-29 09:24:00,59.4,53.5,28.80,NE,45,3.5,3.5,81,0.00,CLR,SKC,0.00,WeatherDisplay:10.37,2013-04-29 13:24:00,
2013-04-29 09:29:00,59.4,53.5,28.80,NE,45,1.2,0.0,81,0.00,CLR,SKC,0.00,WeatherDisplay:10.37,2013-04-29 13:29:00,
2013-04-29 09:34:00,59.7,54.2,28.80,East,90,1.2,0.0,82,0.00,CLR,SKC,0.00,WeatherDisplay:10.37,2013-04-29 13:34:00,
2013-04-29 09:39:00,59.9,53.7,28.80,NE,45,3.5,3.5,80,0.00,CLR,SKC,0.00,WeatherDisplay:10.37,2013-04-29 13:39:00,
2013-04-29 09:44:00,59.7,53.5,28.80,East,90,1.2,0.0,80,0.00,CLR,SKC,0.00,WeatherDisplay:10.37,2013-04-29 13:44:00,
2013-04-29 09:49:00,60.1,53.9,28.80,East,90,0.0,0.0,80,0.00,CLR,SKC,0.00,WeatherDisplay:10.37,2013-04-29 13:49:00,
2013-04-29 09:54:00,60.3,54.4,28.80,East,90,2.3,2.3,81,0.00,CLR,SKC,0.00,WeatherDisplay:10.37,2013-04-29 13:54:00,
2013-04-29 09:59:00,60.6,54.8,28.80,NE,45,1.2,0.0,81,0.00,CLR,SKC,0.00,WeatherDisplay:10.37,2013-04-29 13:59:00,
2013-04-29 10:04:00,61.0,55.1,28.80,East,90,2.3,0.0,81,0.00,CLR,SKC,0.00,WeatherDisplay:10.37,2013-04-29 14:04:00,
2013-04-29 10:09:00,61.3,54.8,28.80,East,90,0.0,0.0,79,0.00,CLR,SKC,0.00,WeatherDisplay:10.37,2013-04-29 14:09:00,
2013-04-29 10:14:00,61.5,54.6,28.80,East,90,3.5,0.0,78,0.00,CLR,SKC,0.00,WeatherDisplay:10.37,2013-04-29 14:14:00,
2013-04-29 10:19:00,61.9,54.6,28.80,NE,45,2.3,0.0,77,0.00,CLR,SKC,0.00,WeatherDisplay:10.37,2013-04-29 14:19:00,
2013-04-29 10:24:00,62.1,54.4,28.79,East,90,2.3,0.0,76,0.00,CLR,SKC,0.00,WeatherDisplay:10.37,2013-04-29 14:24:00,
2013-04-29 10:29:00,62.2,54.6,28.80,South,180,2.3,2.3,76,0.00,CLR,SKC,0.00,WeatherDisplay:10.37,2013-04-29 14:29:00,
2013-04-29 10:34:00,62.4,54.8,28.80,East,90,2.3,0.0,76,0.00,CLR,SKC,0.00,WeatherDisplay:10.37,2013-04-29 14:34:00,
2013-04-29 10:39:00,62.6,54.9,28.80,South,180,2.3,2.3,76,0.00,CLR,SKC,0.00,WeatherDisplay:10.37,2013-04-29 14:39:00,
2013-04-29 10:44:00,62.2,54.6,28.80,East,90,3.5,3.5,76,0.00,CLR,SKC,0.00,WeatherDisplay:10.37,2013-04-29 14:44:00,
2013-04-29 10:49:00,62.1,54.8,28.80,SE,135,3.5,3.5,77,0.00,CLR,SKC,0.00,WeatherDisplay:10.37,2013-04-29 14:49:00,
2013-04-29 10:54:00,61.9,54.2,28.80,SE,135,4.6,4.6,76,0.00,CLR,SKC,0.00,WeatherDisplay:10.37,2013-04-29 14:54:00,
2013-04-29 10:59:00,61.7,54.4,28.80,East,90,5.8,5.8,77,0.00,CLR,SKC,0.00,WeatherDisplay:10.37,2013-04-29 14:59:00,
2013-04-29 11:04:00,61.7,54.8,28.80,NE,45,3.8,3.8,78,0.00,CLR,SKC,0.00,WeatherDisplay:10.37,2013-04-29 15:04:00,
2013-04-29 11:09:00,61.7,55.1,28.80,East,90,5.8,5.8,79,0.00,CLR,SKC,0.00,WeatherDisplay:10.37,2013-04-29 15:09:00,
2013-04-29 11:14:00,61.9,55.3,28.80,South,180,3.5,0.0,79,0.00,CLR,SKC,0.00,WeatherDisplay:10.37,2013-04-29 15:14:00,
2013-04-29 11:19:00,62.1,55.1,28.80,South,180,8.1,8.1,78,0.00,CLR,SKC,0.00,WeatherDisplay:10.37,2013-04-29 15:19:00,
2013-04-29 11:24:00,62.2,55.3,28.80,SE,135,2.3,2.3,78,0.00,CLR,SKC,0.00,WeatherDisplay:10.37,2013-04-29 15:24:00,
2013-04-29 11:29:00,62.4,55.1,28.80,SE,135,4.6,4.6,77,0.00,CLR,SKC,0.00,WeatherDisplay:10.37,2013-04-29 15:29:00,
2013-04-29 11:34:00,62.4,55.1,28.80,NE,45,2.3,2.3,77,0.00,CLR,SKC,0.00,WeatherDisplay:10.37,2013-04-29 15:34:00,
2013-04-29 11:39:00,62.2,54.9,28.80,South,180,3.5,3.5,77,0.00,CLR,SKC,0.00,WeatherDisplay:10.37,2013-04-29 15:39:00,
2013-04-29 11:44:00,62.4,55.1,28.80,SE,135,4.6,0.0,77,0.00,CLR,SKC,0.00,WeatherDisplay:10.37,2013-04-29 15:44:00,
2013-04-29 11:49:00,62.8,55.5,28.80,SE,135,4.6,4.6,77,0.00,CLR,SKC,0.00,WeatherDisplay:10.37,2013-04-29 15:49:00,
2013-04-29 11:54:00,62.8,55.5,28.80,SE,135,5.8,5.8,77,0.00,CLR,SKC,0.00,WeatherDisplay:10.37,2013-04-29 15:54:00,
2013-04-29 11:59:00,62.2,55.3,28.80,WNW,292,5.8,5.8,78,0.00,CLR,SKC,0.00,WeatherDisplay:10.37,2013-04-29 15:59:00,
2013-04-29 12:04:00,61.7,55.1,28.80,SSE,158,3.5,3.5,79,0.00,CLR,SKC,0.00,WeatherDisplay:10.37,2013-04-29 16:04:00,
2013-04-29 12:09:00,61.3,55.5,28.81,NW,315,5.8,5.8,81,0.00,CLR,SKC,0.00,WeatherDisplay:10.37,2013-04-29 16:09:00,
2013-04-29 12:15:00,60.4,55.6,28.81,South,180,5.8,5.8,84,0.00,CLR,SKC,0.00,WeatherDisplay:10.37,2013-04-29 16:15:00,
2013-04-29 12:20:00,60.1,55.6,28.81,SE,135,4.6,4.6,85,0.00,CLR,SKC,0.00,WeatherDisplay:10.37,2013-04-29 16:20:00,
2013-04-29 12:25:00,59.7,56.2,28.81,North,0,5.8,5.8,88,0.00,CLR,SKC,0.00,WeatherDisplay:10.37,2013-04-29 16:25:00,
2013-04-29 12:30:00,59.2,56.2,28.81,SE,135,4.6,4.6,90,0.00,CLR,SKC,0.00,WeatherDisplay:10.37,2013-04-29 16:30:00,
2013-04-29 12:35:00,58.8,56.2,28.81,South,180,3.5,0.0,91,0.00,CLR,SKC,0.00,WeatherDisplay:10.37,2013-04-29 16:35:00,
2013-04-29 12:40:00,58.6,56.6,28.80,South,180,3.5,0.0,93,0.01,RA,SKC,0.01,WeatherDisplay:10.37,2013-04-29 16:40:00,
2013-04-29 12:45:00,58.6,57.5,28.80,North,0,4.6,4.6,96,0.01,RA,SKC,0.01,WeatherDisplay:10.37,2013-04-29 16:45:00,
2013-04-29 12:50:00,58.8,58.3,28.80,South,180,4.6,4.6,98,0.01,,SKC,0.01,WeatherDisplay:10.37,2013-04-29 16:50:00,
2013-04-29 12:55:00,59.4,59.4,28.80,NW,315,3.5,3.5,100,0.02,RA,SKC,0.02,WeatherDisplay:10.37,2013-04-29 16:55:00,
2013-04-29 13:00:00,59.4,59.4,28.80,South,180,4.6,4.6,100,0.02,RA,SKC,0.02,WeatherDisplay:10.37,2013-04-29 17:00:00,
2013-04-29 13:05:00,59.4,59.4,28.80,SE,135,3.5,0.0,100,0.02,CLR,SKC,0.02,WeatherDisplay:10.37,2013-04-29 17:05:00,
2013-04-29 13:10:00,59.7,59.7,28.79,East,90,3.5,3.5,100,0.02,CLR,SKC,0.02,WeatherDisplay:10.37,2013-04-29 17:10:00,
2013-04-29 13:15:00,60.1,59.8,28.80,ESE,112,3.5,3.5,99,0.02,CLR,SKC,0.02,WeatherDisplay:10.37,2013-04-29 17:15:00,
2013-04-29 13:20:00,60.8,60.2,28.80,South,180,2.3,0.0,98,0.02,CLR,SKC,0.02,WeatherDisplay:10.37,2013-04-29 17:20:00,
2013-04-29 13:25:00,60.4,58.7,28.80,NE,45,6.9,6.9,94,0.02,CLR,SKC,0.02,WeatherDisplay:10.37,2013-04-29 17:25:00,
2013-04-29 13:30:00,60.1,58.6,28.80,East,90,8.1,8.1,95,0.02,CLR,SKC,0.02,WeatherDisplay:10.37,2013-04-29 17:30:00,
2013-04-29 13:35:00,60.1,58.9,28.80,South,180,5.8,5.8,96,0.02,CLR,SKC,0.02,WeatherDisplay:10.37,2013-04-29 17:35:00,
2013-04-29 13:40:00,60.3,59.4,28.80,SE,135,5.8,5.8,97,0.01,CLR,SKC,0.02,WeatherDisplay:10.37,2013-04-29 17:40:00,
2013-04-29 13:45:00,60.3,59.1,28.80,East,90,5.8,5.8,96,0.02,RA,SKC,0.04,WeatherDisplay:10.37,2013-04-29 17:45:00,
2013-04-29 13:50:00,60.3,59.1,28.80,NE,45,5.8,5.8,96,0.02,RA,SKC,0.04,WeatherDisplay:10.37,2013-04-29 17:50:00,
2013-04-29 13:55:00,60.4,59.6,28.80,East,90,4.6,4.6,97,0.01,CLR,SKC,0.04,WeatherDisplay:10.37,2013-04-29 17:55:00,
2013-04-29 14:00:00,61.0,60.4,28.80,South,180,5.8,5.8,98,0.01,CLR,SKC,0.04,WeatherDisplay:10.37,2013-04-29 18:00:00,
2013-04-29 14:05:00,61.5,59.8,28.80,East,90,5.8,5.8,94,0.01,CLR,SKC,0.04,WeatherDisplay:10.37,2013-04-29 18:05:00,
2013-04-29 14:10:00,61.5,58.9,28.80,East,90,5.8,5.8,91,0.01,CLR,SKC,0.04,WeatherDisplay:10.37,2013-04-29 18:10:00,
2013-04-29 14:15:00,61.9,58.6,28.80,SE,135,4.6,4.6,89,0.01,CLR,SKC,0.04,WeatherDisplay:10.37,2013-04-29 18:15:00,
2013-04-29 14:20:00,62.1,58.1,28.80,East,90,5.8,5.8,87,0.01,CLR,SKC,0.04,WeatherDisplay:10.37,2013-04-29 18:20:00,
2013-04-29 14:25:00,62.1,57.8,28.80,South,180,3.5,3.5,86,0.01,CLR,SKC,0.04,WeatherDisplay:10.37,2013-04-29 18:25:00,
2013-04-29 14:30:00,61.9,57.6,28.80,East,90,3.5,3.5,86,0.01,CLR,SKC,0.04,WeatherDisplay:10.37,2013-04-29 18:30:00,
2013-04-29 14:35:00,62.2,58.3,28.80,East,90,1.2,0.0,87,0.01,CLR,SKC,0.04,WeatherDisplay:10.37,2013-04-29 18:35:00,
2013-04-29 14:40:00,62.1,57.8,28.80,East,90,4.6,0.0,86,0.01,CLR,SKC,0.04,WeatherDisplay:10.37,2013-04-29 18:40:00,
2013-04-29 14:45:00,62.1,57.8,28.80,East,90,3.5,0.0,86,0.00,CLR,SKC,0.04,WeatherDisplay:10.37,2013-04-29 18:45:00,
2013-04-29 14:50:00,62.1,57.8,28.79,East,90,4.6,0.0,86,0.00,CLR,SKC,0.04,WeatherDisplay:10.37,2013-04-29 18:50:00,
2013-04-29 14:55:00,62.1,58.1,28.80,South,180,3.5,3.5,87,0.00,CLR,SKC,0.04,WeatherDisplay:10.37,2013-04-29 18:55:00,
2013-04-29 15:00:00,61.9,58.0,28.79,SE,135,2.3,2.3,87,0.00,CLR,SKC,0.04,WeatherDisplay:10.37,2013-04-29 19:00:00,
2013-04-29 15:05:00,61.7,58.1,28.79,East,90,1.2,0.0,88,0.00,CLR,SKC,0.04,WeatherDisplay:10.37,2013-04-29 19:05:00,
2013-04-29 15:10:00,61.5,57.6,28.80,NE,45,3.5,0.0,87,0.00,CLR,SKC,0.04,WeatherDisplay:10.37,2013-04-29 19:10:00,
2013-04-29 15:15:00,61.3,58.1,28.80,NE,45,3.5,0.0,89,0.00,CLR,SKC,0.04,WeatherDisplay:10.37,2013-04-29 19:15:00,
2013-04-29 15:20:00,61.3,58.1,28.80,SE,135,2.3,0.0,89,0.00,CLR,SKC,0.04,WeatherDisplay:10.37,2013-04-29 19:20:00,
2013-04-29 15:25:00,61.3,58.1,28.80,NE,45,0.0,0.0,89,0.00,CLR,SKC,0.04,WeatherDisplay:10.37,2013-04-29 19:25:00,
2013-04-29 15:30:00,61.9,58.6,28.79,NE,45,2.3,0.0,89,0.00,CLR,SKC,0.04,WeatherDisplay:10.37,2013-04-29 19:30:00,
2013-04-29 15:35:00,62.6,59.3,28.79,East,90,3.5,0.0,89,0.00,CLR,SKC,0.04,WeatherDisplay:10.37,2013-04-29 19:35:00,
2013-04-29 15:40:00,63.3,58.4,28.79,East,90,5.8,5.8,84,0.00,CLR,SKC,0.04,WeatherDisplay:10.37,2013-04-29 19:40:00,
2013-04-29 15:45:00,64.9,59.3,28.78,East,90,4.5,4.5,82,0.00,CLR,SKC,0.04,WeatherDisplay:10.37,2013-04-29 19:45:00,
2013-04-29 15:50:00,65.3,59.0,28.78,NE,45,3.5,3.5,80,0.00,CLR,SKC,0.04,WeatherDisplay:10.37,2013-04-29 19:50:00,
2013-04-29 15:55:00,65.1,58.8,28.78,NE,45,1.2,0.0,80,0.00,CLR,SKC,0.04,WeatherDisplay:10.37,2013-04-29 19:55:00,
2013-04-29 16:00:00,65.5,59.1,28.78,NE,45,2.3,2.3,80,0.00,CLR,SKC,0.04,WeatherDisplay:10.37,2013-04-29 20:00:00,
2013-04-29 16:05:00,65.3,58.3,28.78,NE,45,2.3,0.0,78,0.00,CLR,SKC,0.04,WeatherDisplay:10.37,2013-04-29 20:05:00,
2013-04-29 16:10:00,65.7,58.6,28.77,NE,45,3.5,3.5,78,0.00,CLR,SKC,0.04,WeatherDisplay:10.37,2013-04-29 20:10:00,
2013-04-29 16:15:00,65.5,58.1,28.77,NE,45,2.3,0.0,77,0.00,CLR,SKC,0.04,WeatherDisplay:10.37,2013-04-29 20:15:00,
2013-04-29 16:21:00,65.7,58.6,28.77,NE,45,1.2,0.0,78,0.00,CLR,SKC,0.04,WeatherDisplay:10.37,2013-04-29 20:21:00,
2013-04-29 16:26:00,65.5,58.1,28.77,NE,45,3.1,3.1,77,0.00,CLR,SKC,0.04,WeatherDisplay:10.37,2013-04-29 20:26:00,
2013-04-29 16:31:00,65.1,57.7,28.77,NE,45,2.3,2.3,77,0.00,CLR,SKC,0.04,WeatherDisplay:10.37,2013-04-29 20:31:00,
2013-04-29 16:36:00,65.5,58.8,28.77,NE,45,2.3,2.3,79,0.00,CLR,SKC,0.04,WeatherDisplay:10.37,2013-04-29 20:36:00,
2013-04-29 16:41:00,66.0,59.3,28.77,NE,45,1.2,0.0,79,0.00,CLR,SKC,0.04,WeatherDisplay:10.37,2013-04-29 20:41:00,
2013-04-29 16:46:00,66.0,58.6,28.76,NW,315,3.5,3.5,77,0.00,CLR,SKC,0.04,WeatherDisplay:10.37,2013-04-29 20:46:00,
2013-04-29 16:51:00,66.2,59.1,28.77,North,0,3.5,3.5,78,0.00,CLR,SKC,0.04,WeatherDisplay:10.37,2013-04-29 20:51:00,
2013-04-29 16:56:00,65.8,58.4,28.77,East,90,5.8,5.8,77,0.00,CLR,SKC,0.04,WeatherDisplay:10.37,2013-04-29 20:56:00,
2013-04-29 17:01:00,65.3,58.3,28.77,NE,45,3.5,3.5,78,0.00,CLR,SKC,0.04,WeatherDisplay:10.37,2013-04-29 21:01:00,
2013-04-29 17:06:00,64.9,58.3,28.77,North,0,3.5,3.5,79,0.00,CLR,SKC,0.04,WeatherDisplay:10.37,2013-04-29 21:06:00,
2013-04-29 17:11:00,64.4,58.1,28.76,North,0,3.5,3.5,80,0.00,CLR,SKC,0.04,WeatherDisplay:10.37,2013-04-29 21:11:00,
2013-04-29 17:16:00,64.0,58.1,28.76,NE,45,3.5,3.5,81,0.00,CLR,SKC,0.04,WeatherDisplay:10.37,2013-04-29 21:16:00,
2013-04-29 17:21:00,63.9,58.3,28.76,North,0,5.8,5.8,82,0.00,CLR,SKC,0.04,WeatherDisplay:10.37,2013-04-29 21:21:00,
2013-04-29 17:26:00,63.5,58.2,28.76,North,0,5.8,5.8,83,0.00,CLR,SKC,0.04,WeatherDisplay:10.37,2013-04-29 21:26:00,
2013-04-29 17:31:00,63.1,58.6,28.77,North,0,6.9,6.9,85,0.00,CLR,SKC,0.04,WeatherDisplay:10.37,2013-04-29 21:31:00,
2013-04-29 17:36:00,62.8,58.9,28.76,NNE,22,8.1,8.1,87,0.00,CLR,SKC,0.04,WeatherDisplay:10.37,2013-04-29 21:36:00,
2013-04-29 17:41:00,62.2,59.0,28.76,North,0,8.1,8.1,89,0.00,CLR,SKC,0.04,WeatherDisplay:10.37,2013-04-29 21:41:00,
2013-04-29 17:46:00,62.1,59.1,28.76,North,0,5.8,5.8,90,0.00,CLR,SKC,0.04,WeatherDisplay:10.37,2013-04-29 21:46:00,
2013-04-29 17:51:00,62.1,59.1,28.76,North,0,3.5,3.5,90,0.00,CLR,SKC,0.04,WeatherDisplay:10.37,2013-04-29 21:51:00,
2013-04-29 17:56:00,62.1,59.1,28.76,NE,45,3.5,0.0,90,0.00,CLR,SKC,0.04,WeatherDisplay:10.37,2013-04-29 21:56:00,
2013-04-29 18:01:00,62.1,59.1,28.76,NW,315,2.3,2.3,90,0.00,CLR,SKC,0.04,WeatherDisplay:10.37,2013-04-29 22:01:00,
2013-04-29 18:06:00,62.2,59.3,28.77,NNE,14,3.5,3.5,90,0.00,CLR,SKC,0.04,WeatherDisplay:10.37,2013-04-29 22:06:00,
2013-04-29 18:11:00,62.1,59.4,28.77,South,180,2.3,2.3,91,0.00,CLR,SKC,0.04,WeatherDisplay:10.37,2013-04-29 22:11:00,
2013-04-29 18:16:00,61.3,59.6,28.77,South,180,6.9,6.9,94,0.00,CLR,SKC,0.04,WeatherDisplay:10.37,2013-04-29 22:16:00,
2013-04-29 18:21:00,60.1,59.5,28.78,West,270,5.8,5.8,98,0.01,RA,SKC,0.05,WeatherDisplay:10.37,2013-04-29 22:21:00,
2013-04-29 18:26:00,59.5,59.5,28.78,West,270,5.8,5.8,100,0.01,RA,SKC,0.05,WeatherDisplay:10.37,2013-04-29 22:26:00,
2013-04-29 18:31:00,59.2,59.2,28.78,South,180,5.8,5.8,100,0.01,CLR,SKC,0.05,WeatherDisplay:10.37,2013-04-29 22:31:00,
2013-04-29 18:36:00,59.0,59.0,28.78,North,1,5.8,5.8,100,0.01,CLR,SKC,0.05,WeatherDisplay:10.37,2013-04-29 22:36:00,
2013-04-29 18:41:00,59.0,59.0,28.77,North,0,4.6,4.6,100,0.01,CLR,SKC,0.05,WeatherDisplay:10.37,2013-04-29 22:41:00,
2013-04-29 18:46:00,59.0,59.0,28.77,North,0,10.4,10.4,100,0.01,CLR,SKC,0.05,WeatherDisplay:10.37,2013-04-29 22:46:00,
2013-04-29 18:51:00,58.8,58.8,28.77,North,0,3.5,3.5,100,0.01,CLR,SKC,0.05,WeatherDisplay:10.37,2013-04-29 22:51:00,
2013-04-29 18:56:00,59.0,59.0,28.78,South,180,2.3,0.0,100,0.01,CLR,SKC,0.05,WeatherDisplay:10.37,2013-04-29 22:56:00,
2013-04-29 19:01:00,58.8,58.8,28.78,NW,315,1.2,0.0,100,0.01,CLR,SKC,0.05,WeatherDisplay:10.37,2013-04-29 23:01:00,
2013-04-29 19:06:00,58.8,58.8,28.78,NE,45,0.0,0.0,100,0.01,CLR,SKC,0.05,WeatherDisplay:10.37,2013-04-29 23:06:00,
2013-04-29 19:11:00,58.8,58.8,28.78,North,0,0.0,0.0,100,0.01,CLR,SKC,0.05,WeatherDisplay:10.37,2013-04-29 23:11:00,
2013-04-29 19:16:00,58.6,58.6,28.79,North,0,0.0,0.0,100,0.01,CLR,SKC,0.05,WeatherDisplay:10.37,2013-04-29 23:16:00,
2013-04-29 19:21:00,58.6,58.6,28.79,North,0,0.0,0.0,100,0.00,CLR,SKC,0.05,WeatherDisplay:10.37,2013-04-29 23:21:00,
2013-04-29 19:26:00,58.5,58.5,28.79,NW,315,0.0,0.0,100,0.00,CLR,SKC,0.05,WeatherDisplay:10.37,2013-04-29 23:26:00,
2013-04-29 19:31:00,58.3,58.3,28.79,NW,315,1.2,0.0,100,0.00,CLR,SKC,0.05,WeatherDisplay:10.37,2013-04-29 23:31:00,
2013-04-29 19:36:00,58.3,58.3,28.79,North,0,1.2,1.2,100,0.00,CLR,SKC,0.05,WeatherDisplay:10.37,2013-04-29 23:36:00,
2013-04-29 19:41:00,58.3,58.3,28.79,North,0,1.2,0.0,100,0.00,CLR,SKC,0.05,WeatherDisplay:10.37,2013-04-29 23:41:00,
2013-04-29 19:46:00,58.1,58.1,28.79,North,0,2.3,2.3,100,0.00,CLR,SKC,0.05,WeatherDisplay:10.37,2013-04-29 23:46:00,
2013-04-29 19:51:00,57.9,57.9,28.79,North,0,1.2,0.0,100,0.00,CLR,SKC,0.05,WeatherDisplay:10.37,2013-04-29 23:51:00,
2013-04-29 19:56:00,57.9,57.9,28.79,North,0,1.2,0.0,100,0.00,CLR,SKC,0.05,WeatherDisplay:10.37,2013-04-29 23:56:00,
2013-04-29 20:01:00,57.9,57.9,28.79,NE,45,0.0,0.0,100,0.00,CLR,SKC,0.05,WeatherDisplay:10.37,2013-04-30 00:01:00,
2013-04-29 20:06:00,57.7,57.7,28.79,NE,45,0.0,0.0,100,0.00,CLR,SKC,0.05,WeatherDisplay:10.37,2013-04-30 00:06:00,
2013-04-29 20:11:00,57.7,57.7,28.80,NE,45,0.0,0.0,100,0.00,CLR,SKC,0.05,WeatherDisplay:10.37,2013-04-30 00:11:00,
2013-04-29 20:16:00,57.7,57.7,28.80,NE,45,0.0,0.0,100,0.00,CLR,SKC,0.05,WeatherDisplay:10.37,2013-04-30 00:16:00,
2013-04-29 20:21:00,57.7,57.7,28.80,NE,45,0.0,0.0,100,0.00,CLR,SKC,0.05,WeatherDisplay:10.37,2013-04-30 00:21:00,
2013-04-29 20:26:00,57.6,57.6,28.80,NE,45,0.0,0.0,100,0.00,CLR,SKC,0.05,WeatherDisplay:10.37,2013-04-30 00:26:00,
2013-04-29 20:31:00,57.6,57.6,28.80,NE,45,0.0,0.0,100,0.00,CLR,SKC,0.05,WeatherDisplay:10.37,2013-04-30 00:31:00,
2013-04-29 20:36:00,57.6,57.6,28.80,NE,45,0.0,0.0,100,0.00,CLR,SKC,0.05,WeatherDisplay:10.37,2013-04-30 00:36:00,
2013-04-29 20:41:00,57.4,57.4,28.81,NE,45,0.0,0.0,100,0.00,CLR,SKC,0.05,WeatherDisplay:10.37,2013-04-30 00:41:00,
2013-04-29 20:46:00,57.4,57.4,28.81,NE,45,2.3,2.3,100,0.00,CLR,SKC,0.05,WeatherDisplay:10.37,2013-04-30 00:46:00,
2013-04-29 20:51:00,57.4,57.4,28.81,NE,45,2.3,0.0,100,0.00,CLR,SKC,0.05,WeatherDisplay:10.37,2013-04-30 00:51:00,
2013-04-29 20:56:00,57.4,57.4,28.81,NE,45,0.0,0.0,100,0.00,CLR,SKC,0.05,WeatherDisplay:10.37,2013-04-30 00:56:00,
2013-04-29 21:01:00,57.4,57.4,28.81,NE,45,1.2,0.0,100,0.00,CLR,SKC,0.05,WeatherDisplay:10.37,2013-04-30 01:01:00,
2013-04-29 21:06:00,57.4,57.4,28.81,NE,45,0.0,0.0,100,0.00,CLR,SKC,0.05,WeatherDisplay:10.37,2013-04-30 01:06:00,
2013-04-29 21:11:00,57.4,57.4,28.82,NE,45,1.2,0.0,100,0.00,CLR,SKC,0.05,WeatherDisplay:10.37,2013-04-30 01:11:00,
2013-04-29 21:16:00,57.4,57.4,28.82,NE,45,0.0,0.0,100,0.00,CLR,SKC,0.05,WeatherDisplay:10.37,2013-04-30 01:16:00,
2013-04-29 21:21:00,57.6,57.6,28.82,NE,45,2.3,0.0,100,0.00,CLR,SKC,0.05,WeatherDisplay:10.37,2013-04-30 01:21:00,
2013-04-29 21:26:00,57.6,57.6,28.82,NE,45,1.2,1.2,100,0.00,CLR,SKC,0.05,WeatherDisplay:10.37,2013-04-30 01:26:00,
2013-04-29 21:32:00,57.7,57.7,28.82,NE,45,2.3,2.3,100,0.00,CLR,SKC,0.05,WeatherDisplay:10.37,2013-04-30 01:32:00,
2013-04-29 21:37:00,57.7,57.7,28.82,NE,45,5.8,5.8,100,0.00,CLR,SKC,0.05,WeatherDisplay:10.37,2013-04-30 01:37:00,
2013-04-29 21:42:00,57.6,57.6,28.82,NE,45,1.2,0.0,100,0.00,CLR,SKC,0.05,WeatherDisplay:10.37,2013-04-30 01:42:00,
2013-04-29 21:47:00,57.6,57.6,28.83,NE,45,1.2,0.0,100,0.00,CLR,SKC,0.05,WeatherDisplay:10.37,2013-04-30 01:47:00,
2013-04-29 21:52:00,57.6,57.6,28.82,NE,45,2.3,2.3,100,0.00,CLR,SKC,0.05,WeatherDisplay:10.37,2013-04-30 01:52:00,
2013-04-29 21:57:00,57.4,57.4,28.83,NE,45,2.3,2.3,100,0.00,CLR,SKC,0.05,WeatherDisplay:10.37,2013-04-30 01:57:00,
2013-04-29 22:02:00,57.4,57.4,28.83,NE,45,2.3,2.3,100,0.00,CLR,SKC,0.05,WeatherDisplay:10.37,2013-04-30 02:02:00,
2013-04-29 22:07:00,57.4,57.4,28.82,NE,45,2.3,2.3,100,0.00,CLR,SKC,0.05,WeatherDisplay:10.37,2013-04-30 02:07:00,
2013-04-29 22:12:00,57.4,57.4,28.83,NE,45,3.5,3.5,100,0.00,CLR,SKC,0.05,WeatherDisplay:10.37,2013-04-30 02:12:00,
2013-04-29 22:17:00,57.4,57.4,28.83,NE,45,2.3,2.3,100,0.00,CLR,SKC,0.05,WeatherDisplay:10.37,2013-04-30 02:17:00,
2013-04-29 22:22:00,57.4,57.4,28.83,NE,45,3.5,3.5,100,0.00,CLR,SKC,0.05,WeatherDisplay:10.37,2013-04-30 02:22:00,
2013-04-29 22:27:00,57.4,57.4,28.83,NE,45,3.5,3.5,100,0.00,CLR,SKC,0.05,WeatherDisplay:10.37,2013-04-30 02:27:00,
2013-04-29 22:32:00,57.2,57.2,28.83,NE,45,2.3,2.3,100,0.00,CLR,SKC,0.05,WeatherDisplay:10.37,2013-04-30 02:32:00,
2013-04-29 22:37:00,57.2,57.2,28.83,NE,45,1.2,0.0,100,0.00,CLR,SKC,0.05,WeatherDisplay:10.37,2013-04-30 02:37:00,
2013-04-29 22:42:00,57.2,57.2,28.83,NE,45,1.6,1.6,100,0.00,CLR,SKC,0.05,WeatherDisplay:10.37,2013-04-30 02:42:00,
2013-04-29 22:47:00,57.2,57.2,28.83,NE,45,2.3,2.3,100,0.00,CLR,SKC,0.05,WeatherDisplay:10.37,2013-04-30 02:47:00,
2013-04-29 22:52:00,57.0,57.0,28.83,NE,45,2.3,0.0,100,0.00,CLR,SKC,0.05,WeatherDisplay:10.37,2013-04-30 02:52:00,
2013-04-29 22:57:00,56.8,56.8,28.83,NE,45,5.8,5.8,100,0.00,CLR,SKC,0.05,WeatherDisplay:10.37,2013-04-30 02:57:00,
2013-04-29 23:02:00,56.8,56.8,28.83,NE,45,3.5,3.5,100,0.00,CLR,SKC,0.05,WeatherDisplay:10.37,2013-04-30 03:02:00,
2013-04-29 23:07:00,56.8,56.8,28.83,NE,45,3.5,3.5,100,0.00,CLR,SKC,0.05,WeatherDisplay:10.37,2013-04-30 03:07:00,
2013-04-29 23:12:00,56.7,56.7,28.83,ENE,68,2.3,2.3,100,0.00,CLR,SKC,0.05,WeatherDisplay:10.37,2013-04-30 03:12:00,
2013-04-29 23:17:00,56.7,56.7,28.83,NE,45,4.6,4.6,100,0.00,CLR,SKC,0.05,WeatherDisplay:10.37,2013-04-30 03:17:00,
2013-04-29 23:22:00,56.7,56.7,28.83,NE,45,3.5,3.5,100,0.00,CLR,SKC,0.05,WeatherDisplay:10.37,2013-04-30 03:22:00,
2013-04-29 23:27:00,56.7,56.7,28.83,NE,45,3.5,3.5,100,0.00,CLR,SKC,0.05,WeatherDisplay:10.37,2013-04-30 03:27:00,
2013-04-29 23:32:00,56.7,56.7,28.83,NE,45,3.5,3.5,100,0.00,CLR,SKC,0.05,WeatherDisplay:10.37,2013-04-30 03:32:00,
2013-04-29 23:37:00,56.7,56.7,28.83,NE,45,2.3,2.3,100,0.00,CLR,SKC,0.05,WeatherDisplay:10.37,2013-04-30 03:37:00,
2013-04-29 23:42:00,56.7,56.7,28.83,NE,45,3.5,3.5,100,0.00,CLR,SKC,0.05,WeatherDisplay:10.37,2013-04-30 03:42:00,
2013-04-29 23:47:00,56.7,56.7,28.83,NE,45,2.3,2.3,100,0.00,CLR,SKC,0.05,WeatherDisplay:10.37,2013-04-30 03:47:00,
2013-04-29 23:52:00,56.7,56.7,28.84,NE,45,3.5,3.5,100,0.00,CLR,SKC,0.05,WeatherDisplay:10.37,2013-04-30 03:52:00,
2013-04-29 23:57:00,56.7,56.7,28.84,NE,45,3.5,3.5,100,0.00,CLR,SKC,0.05,WeatherDisplay:10.37,2013-04-30 03:57:00,